Location: San Gennaro Vesuviano
(40.8833°N, 14.5333°E)
Time: 21:38:59
(UTC+00:00)

SPOT 5 - Pass Details

Date: 22 April 2021
Orbit: 624 x 814 km, 98.2° (Epoch: 10 May)

Event Time Altitude Azimuth Distance (km) Brightness Sun altitude
Exits shadow 21:14:08 38° 304° (WNW) 1,038 4.0 -31.2°
Drops below altitude 10° 21:17:32 10° 336° (NNW) 2,184 6.2 -31.6°
Sets 21:19:57 0° 342° (NNW) 3,141 7.3 -31.8°
